Weather History for Paris / Charles De Gaulle, France

Change the Weather History Date:

Friday, April 18, 2014

  Actual Average Record
Temperature  
Mean Temperature 51 °F -  
Max Temperature 56 °F 62 °F 73 °F (2003)
Min Temperature 44 °F 46 °F 35 °F (1997)
Degree Days  
Heating Degree Days 14    
Growing Degree Days 1 (Base 50)    
Moisture  
Dew Point 36 °F    
Average Humidity 50    
Maximum Humidity 71    
Minimum Humidity 26    
Precipitation  
Precipitation 0.00 in - - ()
Sea Level Pressure  
Sea Level Pressure 30.02 in    
Wind  
Wind Speed 11 mph ()    
Max Wind Speed 21 mph    
Max Gust Speed 31 mph    
Visibility 9.3 miles    
Events      
Averages and records for this station are not official NWS values.
T = Trace of Precipitation, MM = Missing Value Source: Averaged Metar Reports

Daily Weather History Graph

Daily Weather History Graph

Search for Another Location

Airport:

Trip Planner

Search our weather history database for the weather conditions in past years. The results will help you decide how hot, cold, wet, or windy it might be!

Date:

Astronomy

Apr. 18, 2014 Rise Set
Actual Time 6:53 AM CEST 8:46 PM CEST
Civil Twilight 6:19 AM CEST 9:20 PM CEST
Nautical Twilight 5:38 AM CEST 10:01 PM CEST
Astronomical Twilight 4:52 AM CEST 10:48 PM CEST
Moon No Moon Rise 8:50 AM CEST
Length of Visible Light 15h 00m
Length of Day
13h 52m
Waning Gibbous, 89% of the Moon is Illuminated
Apr 18
Waning Gibbous
Apr 22
Last Quarter
Apr 29
New
May 7
First Quarter
May 14
Full

Hourly Weather History & Observations

Time (CEST) Temp. Windchill Dew Point Humidity Pressure Visibility Wind Dir Wind Speed Gust Speed Precip Events Conditions
12:00 AM 57 °F - 37 °F 35% 30.02 in 11 mi WNW 9.2 mph - -   Mostly Cloudy
12:00 AM 57.2 °F - 37.4 °F 48% 30.01 in - WNW 9.2 mph - N/A   Clear
12:30 AM 57.2 °F - 33.8 °F 41% 30.01 in - WNW 11.5 mph - N/A   Clear
1:00 AM 56 °F - 35 °F 33% 30.02 in 11 mi WNW 8.1 mph - -   Mostly Cloudy
1:00 AM 55.4 °F - 35.6 °F 47% 30.01 in - WNW 8.1 mph - N/A   Clear
1:30 AM 55.4 °F - 35.6 °F 47% 30.01 in - NW 8.1 mph - N/A   Clear
2:00 AM 54 °F - 36 °F 39% 30.02 in 11 mi NW 12.7 mph - -   Mostly Cloudy
2:00 AM 53.6 °F - 35.6 °F 51% 30.01 in - NW 12.7 mph - N/A   Clear
2:30 AM 53.6 °F - 37.4 °F 54% 30.01 in - NNW 10.4 mph - N/A   Clear
3:00 AM 52 °F - 39 °F 51% 30.01 in 11 mi NNW 8.1 mph - -   Overcast
3:00 AM 51.8 °F - 39.2 °F 62% 30.01 in - NNW 8.1 mph - N/A   Clear
3:30 AM 51.8 °F - 39.2 °F 62% 29.98 in - NNW 9.2 mph - N/A   Clear
4:00 AM 52 °F - 41 °F 57% 30.00 in 9 mi NNW 6.9 mph - -   Overcast
4:00 AM 51.8 °F - 41.0 °F 67% 29.98 in 6.2 mi NNW 6.9 mph - N/A   Mostly Cloudy
4:30 AM 51.8 °F - 42.8 °F 71% 29.98 in 6.2 mi NNW 8.1 mph - N/A   Mostly Cloudy
5:00 AM 51 °F - 44 °F 68% 30.00 in 7 mi North 9.2 mph - -   Clear
5:00 AM 51.8 °F - 42.8 °F 71% 29.98 in 6.2 mi North 9.2 mph - N/A   Mostly Cloudy
5:30 AM 51.8 °F - 42.8 °F 71% 29.98 in 6.2 mi North 10.4 mph - N/A   Mostly Cloudy
6:00 AM 51 °F - 42 °F 64% 29.99 in 9 mi North 9.2 mph - -   Overcast
6:00 AM 51.8 °F - 42.8 °F 71% 29.98 in 6.2 mi North 9.2 mph - N/A   Mostly Cloudy
6:30 AM 51.8 °F - 41.0 °F 67% 29.98 in 6.2 mi North 11.5 mph - N/A   Mostly Cloudy
7:00 AM 51 °F - 42 °F 61% 30.00 in 9 mi North 11.5 mph - -   Overcast
7:00 AM 51.8 °F - 41.0 °F 67% 29.98 in 6.2 mi North 12.7 mph - N/A   Mostly Cloudy
7:30 AM 50.0 °F - 41.0 °F 71% 29.98 in 6.2 mi North 13.8 mph - N/A   Mostly Cloudy
8:00 AM 51 °F - 41 °F 60% 30.02 in 7 mi North 11.5 mph - -   Mostly Cloudy
8:00 AM 50.0 °F - 41.0 °F 71% 30.01 in 6.2 mi North 11.5 mph - N/A   Mostly Cloudy
8:30 AM 50.0 °F - 41.0 °F 71% 30.01 in 6.2 mi North 12.7 mph - N/A   Mostly Cloudy
9:00 AM 51 °F - 42 °F 61% 30.03 in 9 mi North 12.7 mph - -   Mostly Cloudy
9:00 AM 50.0 °F - 41.0 °F 71% 30.01 in 6.2 mi North 12.7 mph 25.3 mph N/A   Mostly Cloudy
9:30 AM 51.8 °F - 41.0 °F 67% 30.01 in 6.2 mi North 10.4 mph - N/A   Mostly Cloudy
10:00 AM 52 °F - 42 °F 58% 30.04 in 9 mi North 12.7 mph - -   Mostly Cloudy
10:00 AM 51.8 °F - 41.0 °F 67% 30.04 in 6.2 mi North 12.7 mph 25.3 mph N/A   Scattered Clouds
10:30 AM 51.8 °F - 41.0 °F 67% 30.04 in 6.2 mi NNE 13.8 mph - N/A   Scattered Clouds
11:00 AM 54 °F - 41 °F 50% 30.04 in 9 mi North 12.7 mph - -   Partly Cloudy
11:00 AM 53.6 °F - 41.0 °F 62% 30.04 in 6.2 mi North 12.7 mph - N/A   Scattered Clouds
11:30 AM 53.6 °F - 33.8 °F 47% 30.04 in 6.2 mi NNE 13.8 mph - N/A   Scattered Clouds
12:00 PM 54 °F - 33 °F 32% 30.04 in 12 mi NNE 11.5 mph - -   Partly Cloudy
12:00 PM 55.4 °F - 33.8 °F 44% 30.04 in 6.2 mi NNE 12.7 mph - N/A   Scattered Clouds
12:30 PM 55.4 °F - 32.0 °F 41% 30.04 in - NNE 15.0 mph - N/A   Clear
1:00 PM 55 °F - 31 °F 27% 30.04 in 16 mi NNE 13.8 mph - -   Partly Cloudy
1:00 PM 55.4 °F - 30.2 °F 38% 30.04 in - NNE 13.8 mph - N/A   Clear
1:30 PM 55.4 °F - 32.0 °F 41% 30.04 in - North 18.4 mph - N/A   Clear
2:00 PM 55 °F - 32 °F 29% 30.04 in 19 mi North 13.8 mph - -   Mostly Cloudy
2:00 PM 55.4 °F - 32.0 °F 41% 30.04 in - North 13.8 mph - N/A   Clear
2:30 PM 55.4 °F - 32.0 °F 41% 30.04 in - North 15.0 mph 27.6 mph N/A   Clear
3:00 PM 56 °F - 35 °F 33% 30.04 in 25 mi North 15.0 mph - -   Mostly Cloudy
3:00 PM 55.4 °F - 35.6 °F 47% 30.04 in - North 15.0 mph - N/A   Clear
3:30 PM 55.4 °F - 33.8 °F 44% 30.01 in 6.2 mi North 13.8 mph - N/A   Mostly Cloudy
4:00 PM 55 °F - 33 °F 30% 30.03 in 25 mi North 16.1 mph - -   Mostly Cloudy
4:00 PM 55.4 °F - 32.0 °F 41% 30.01 in - North 16.1 mph - N/A   Clear
4:30 PM 57.2 °F - 33.8 °F 41% 30.01 in 6.2 mi North 15.0 mph - N/A   Mostly Cloudy
5:00 PM 56 °F - 31 °F 26% 30.01 in 25 mi North 13.8 mph - -   Partly Cloudy
5:00 PM 57.2 °F - 32.0 °F 38% 30.01 in - North 13.8 mph 27.6 mph N/A   Clear
5:30 PM 57.2 °F - 30.2 °F 36% 30.01 in - NNE 17.3 mph - N/A   Clear
6:00 PM 55 °F - 30 °F 27% 30.03 in 25 mi North 17.3 mph - -   Partly Cloudy
6:00 PM 55.4 °F - 30.2 °F 38% 30.01 in - North 17.3 mph 31.1 mph N/A   Clear
6:30 PM 55.4 °F - 30.2 °F 38% 30.01 in - North 15.0 mph 28.8 mph N/A   Clear
7:00 PM 53 °F - 30 °F 29% 30.02 in 25 mi NNE 12.7 mph - -   Partly Cloudy
7:00 PM 53.6 °F - 30.2 °F 41% 30.01 in - NNE 13.8 mph - N/A   Clear
7:30 PM 53.6 °F - 30.2 °F 41% 30.01 in - NNE 20.7 mph - N/A   Clear
8:00 PM 51 °F - 31 °F 34% 30.03 in 19 mi NNE 15.0 mph - -   Scattered Clouds
8:00 PM 51.8 °F - 30.2 °F 44% 30.01 in - NNE 15.0 mph 27.6 mph N/A   Clear
8:30 PM 50.0 °F - 32.0 °F 50% 30.01 in - North 12.7 mph - N/A   Clear
9:00 PM 48 °F - 32 °F 42% 30.04 in 19 mi North 8.1 mph - -  
9:00 PM 48.2 °F - 32.0 °F 54% 30.01 in - North 9.2 mph - N/A   Clear
9:30 PM 48.2 °F - 30.2 °F 50% 30.01 in - North 8.1 mph - N/A   Clear
10:00 PM 47 °F - 32 °F 44% 30.04 in 19 mi North 9.2 mph - -  
10:00 PM 46.4 °F 41.9 °F 32.0 °F 57% 30.01 in - North 9.2 mph - N/A   Clear
10:30 PM 46.4 °F 41.5 °F 32.0 °F 57% 30.01 in - NNE 10.4 mph - N/A   Clear
11:00 PM 46 °F - 33 °F 49% 30.04 in 19 mi NNE 11.5 mph - -  
11:00 PM 46.4 °F 41.5 °F 33.8 °F 62% 30.01 in - NNE 10.4 mph - N/A   Clear
11:30 PM 44.6 °F 38.8 °F 33.8 °F 66% 30.01 in - North 11.5 mph - N/A   Clear